Wind_Speed
24 24 22 20 19 18 18 17 17 18 19 20 20 20 20 20 21 21 21 22 22 23 24 24 24 25 26 28 28 28 29 30 31 31 31 31 30 30 30 29 28 28 27 27 27 26 25 24 23 22 22 22 21 20 19 18 17 18 18 19 20 20 20 20 20 20 19 19 19
24 24 22 21 20 19 18 17 18 19 20 20 20 20 20 21 21 21 22 23 23 23 24 24 25 26 27 28 28 29 30 31 33 33 32 32 31 31 30 29 29 28 27 27 27 25 24 24 23 22 22 21 21 20 20 19 18 18 19 20 19 19 18 18 18 18 18 18 19
24 24 23 22 22 21 19 18 19 20 21 20 20 20 20 20 21 21 22 23 24 24 24 25 26 27 27 28 29 30 32 33 34 33 33 32 32 31 31 30 30 30 29 29 28 26 25 25 24 23 21 21 21 21 20 20 19 18 18 19 18 17 17 16 17 17 17 18 18
23 23 22 21 21 21 20 19 20 21 21 20 20 20 20 20 21 21 22 23 24 25 25 26 27 27 28 29 31 33 34 35 34 33 33 32 32 32 32 31 31 31 30 30 29 28 27 26 25 23 22 21 21 21 20 19 19 18 18 18 17 17 17 17 17 17 17 17 18
23 22 21 20 20 20 19 20 21 21 21 20 20 21 21 22 22 23 24 25 25 25 26 27 26 27 28 31 33 35 36 36 34 33 33 33 33 33 32 32 31 31 31 30 29 29 28 27 25 23 22 21 20 20 20 20 20 19 19 18 17 17 17 17 17 17 17 17 18
22 21 20 19 19 19 20 21 21 22 21 20 21 22 23 23 23 24 25 26 26 27 27 27 27 28 30 33 35 36 36 35 34 34 34 34 34 34 33 33 33 32 31 31 30 29 28 26 24 22 21 20 20 20 20 20 20 19 19 18 18 18 18 18 18 18 18 18 20
20 19 19 19 20 20 21 22 22 22 21 21 21 23 24 24 24 26 27 27 27 27 27 27 29 31 33 35 35 35 35 35 35 35 35 34 35 35 35 34 34 33 32 31 30 29 27 25 23 22 21 20 20 20 20 19 19 19 19 19 19 19 19 19 19 19 19 20 22
18 18 19 19 20 21 22 23 23 22 22 21 22 23 24 24 25 27 28 27 26 27 28 29 31 33 34 35 35 34 34 35 35 36 36 36 36 36 36 35 34 33 32 31 30 28 26 24 22 21 21 20 20 19 19 19 19 20 21 21 21 20 20 19 19 20 20 22 23
18 19 19 20 21 22 23 23 23 23 22 22 22 23 24 24 25 26 27 26 27 28 29 31 32 34 35 35 34 34 34 35 36 37 37 37 37 37 37 36 35 34 32 31 29 27 25 23 22 21 20 20 20 20 20 21 21 21 22 22 21 20 20 20 20 21 21 22 23
19 20 20 21 22 23 23 23 23 22 22 22 23 23 24 24 25 26 26 26 28 29 31 32 34 35 35 34 34 34 34 35 36 37 38 38 38 37 37 36 35 34 33 30 28 26 24 22 21 21 21 20 21 22 22 22 22 22 21 20 20 20 21 22 21 21 21 21 22
20 20 21 22 23 23 23 23 22 22 21 22 23 24 25 25 26 27 27 28 29 31 32 33 34 34 34 33 33 34 35 36 36 38 38 38 38 37 37 36 35 34 33 30 28 25 23 21 20 20 21 21 21 22 21 21 21 20 20 20 21 21 22 22 21 21 20 20 20
20 21 21 22 23 23 23 23 22 21 21 22 23 25 26 26 27 28 28 29 30 31 32 33 34 34 33 32 33 34 35 36 37 38 39 39 39 38 37 36 36 34 32 30 26 23 21 20 20 20 21 21 21 20 20 20 19 19 20 20 20 21 21 21 20 19 19 18 19
20 21 22 23 23 23 23 23 22 21 21 23 24 25 26 27 28 28 29 30 31 32 32 33 33 33 32 33 34 35 35 36 37 38 39 39 40 39 39 37 37 35 32 29 26 22 19 18 18 18 19 19 19 19 18 18 18 19 19 19 19 20 20 19 18 17 17 17 18
20 21 22 23 23 23 23 23 21 21 22 24 25 26 27 28 29 29 29 30 31 32 32 32 33 33 33 33 34 35 35 35 36 37 38 39 40 41 40 39 38 35 32 30 29 26 22 19 16 16 16 16 16 16 16 16 16 16 17 17 18 18 18 17 17 16 17 17 17
21 21 22 23 23 23 23 22 21 21 23 25 26 27 28 28 29 29 29 30 31 31 32 33 33 33 34 34 34 34 35 35 35 36 37 38 39 41 41 40 38 34 31 32 32 31 28 24 21 18 17 16 15 15 14 13 13 13 14 14 15 15 15 16 16 16 17 17 17
21 22 22 23 23 23 23 23 22 22 24 26 27 27 28 28 29 29 29 30 31 31 31 33 33 34 34 35 35 34 35 35 35 35 36 37 38 39 40 41 38 33 29 31 33 33 32 30 28 26 23 21 20 18 17 15 13 13 13 13 13 14 15 15 16 17 17 16 16
21 22 22 23 23 23 23 23 23 24 25 26 27 28 28 28 29 29 29 29 30 31 32 33 33 33 34 35 35 34 34 34 34 35 35 36 37 37 38 40 38 32 28 29 32 32 31 31 31 31 29 28 26 25 23 21 19 17 17 16 17 17 17 17 17 17 17 17 17
21 22 22 22 22 23 23 24 24 25 26 27 27 28 28 28 29 29 29 29 30 30 32 32 33 33 34 35 35 34 33 33 34 34 34 35 35 36 37 37 37 32 27 28 31 31 30 31 31 31 31 30 29 28 27 25 24 22 21 21 21 21 21 20 20 20 20 20 20
22 22 22 22 22 23 23 24 25 26 26 27 27 28 28 28 28 28 29 29 29 30 31 32 32 33 33 34 35 34 33 32 33 34 34 34 35 35 35 35 35 31 27 27 30 31 30 30 29 30 30 30 29 28 28 27 26 24 24 24 24 24 24 23 23 22 22 22 22
21 22 22 22 22 23 24 24 25 26 27 27 27 28 28 28 28 28 28 29 29 29 30 31 32 32 33 33 34 34 34 32 32 33 34 34 34 34 33 33 32 29 26 26 29 31 30 29 28 28 28 29 29 29 28 27 26 25 25 25 25 25 25 25 24 24 24 23 23
21 21 21 21 22 23 24 25 26 26 27 27 27 28 28 28 27 28 28 28 29 29 29 30 31 32 32 33 33 34 33 32 31 32 33 33 33 33 32 31 31 28 26 25 27 29 30 29 28 27 27 27 28 28 28 27 26 25 25 25 25 26 26 26 26 26 26 25 25
21 21 21 21 22 23 24 25 26 27 27 27 27 28 27 27 27 27 27 28 28 29 29 29 30 31 31 32 32 33 33 32 32 32 32 32 32 32 31 30 29 27 26 26 27 28 29 30 29 28 27 27 27 27 27 26 26 26 25 26 26 26 27 27 27 27 27 27 27
21 21 21 21 22 22 24 25 26 27 27 27 27 27 27 27 27 27 27 28 28 28 28 28 29 30 30 30 31 32 33 33 32 32 32 32 32 31 30 28 27 27 27 27 27 27 28 29 30 30 29 27 26 26 26 26 26 25 26 26 27 27 27 27 28 28 28 28 28
20 20 20 21 21 23 24 25 26 27 27 27 27 27 27 26 26 27 27 28 28 28 28 28 29 29 29 29 30 31 32 32 32 32 32 32 32 31 30 27 25 25 27 28 27 27 26 27 30 31 30 28 27 26 26 26 26 25 26 26 27 27 27 27 27 28 28 29 29
20 20 20 21 21 22 24 25 26 27 27 27 27 26 26 26 26 26 27 28 28 28 28 28 28 29 29 29 29 30 31 31 32 32 32 32 32 31 30 27 24 22 24 26 27 27 26 26 27 30 31 31 29 27 26 26 26 26 26 26 26 27 27 27 27 27 28 28 29
20 20 20 21 21 22 24 25 26 27 27 27 26 26 26 26 26 26 27 28 28 28 28 28 28 28 28 28 28 29 30 30 31 32 32 31 31 31 31 30 25 21 20 24 26 27 27 27 27 29 32 33 31 30 28 27 27 27 27 27 26 27 28 28 28 28 28 29 28
20 20 20 21 21 22 23 24 25 26 26 26 26 26 25 25 25 26 26 27 27 28 28 28 28 27 27 27 28 29 29 30 31 31 32 31 31 30 30 31 27 21 18 21 24 27 28 28 28 28 31 34 33 32 30 29 29 29 28 27 27 28 28 29 29 29 29 29 29
20 20 21 21 22 22 23 24 25 25 26 26 26 25 25 24 25 25 26 26 27 27 28 28 27 27 27 26 27 28 28 29 30 31 31 31 31 31 30 30 29 23 18 18 22 25 27 28 28 29 30 33 34 34 32 30 29 29 28 28 27 28 28 29 29 29 29 29 29
19 20 21 22 22 23 23 24 25 25 25 25 25 24 24 24 24 24 25 25 26 26 27 27 27 27 26 26 26 26 27 28 29 30 30 31 31 31 31 30 30 25 19 16 20 23 25 27 28 29 30 32 34 35 34 32 31 30 29 28 27 27 28 28 29 28 28 28 28
19 20 20 21 22 23 24 24 24 24 24 24 24 24 24 23 23 23 24 24 25 25 26 26 27 27 26 25 25 25 26 27 28 28 29 30 30 31 31 30 30 28 22 17 19 21 23 25 26 28 30 32 34 35 35 34 32 31 29 28 28 28 27 27 28 28 28 28 28
19 20 20 21 22 23 24 24 24 24 23 23 23 23 23 23 23 23 23 23 24 24 25 26 27 27 26 25 24 24 25 26 27 28 28 29 29 29 30 30 31 30 27 21 19 20 22 23 25 26 28 32 33 34 34 34 33 32 30 29 28 27 27 27 28 28 28 28 28
19 19 20 21 22 23 24 24 25 24 23 23 23 23 23 23 22 22 22 22 23 24 25 26 26 27 26 25 24 24 24 25 26 26 27 28 28 28 28 29 29 30 30 27 22 20 20 22 23 24 27 30 32 33 33 33 33 32 31 30 28 27 26 27 27 27 28 27 28
19 20 20 21 22 23 24 25 25 24 23 22 22 22 22 22 22 21 21 22 23 24 24 25 26 26 26 26 25 24 24 24 24 25 26 26 27 27 27 28 28 28 29 29 26 22 19 20 22 23 25 28 31 32 33 33 33 33 32 31 29 28 27 26 26 27 27 27 27
19 20 20 21 21 22 24 25 25 25 24 23 22 22 22 22 22 22 21 22 22 23 23 24 24 25 25 25 24 24 24 24 23 24 24 25 26 26 27 27 27 27 28 28 28 24 20 19 20 22 25 27 30 31 32 32 33 33 33 32 30 29 27 26 26 27 27 27 27
19 20 20 21 21 22 23 24 25 25 24 23 22 21 21 21 21 21 21 21 21 22 22 23 23 24 24 23 23 23 24 24 24 23 23 24 25 25 26 27 27 27 27 27 28 26 22 19 18 20 24 26 28 30 30 31 31 32 33 33 32 30 28 27 26 26 27 26 27
19 20 20 21 21 22 23 24 25 25 24 23 22 21 21 20 20 20 20 20 21 21 22 22 23 24 24 24 23 23 24 25 25 24 23 23 23 24 25 26 27 27 27 27 28 28 25 21 18 19 22 25 27 28 29 30 30 31 32 32 32 30 29 27 26 26 26 26 25
19 19 20 21 21 22 23 24 25 25 25 24 22 21 21 20 20 20 20 20 21 21 22 22 23 24 24 24 23 23 23 24 25 25 24 23 23 23 24 25 26 27 27 27 27 29 28 25 20 19 21 24 25 27 28 28 29 30 31 31 31 31 29 27 26 26 25 25 24
18 19 19 20 21 22 23 23 24 25 25 24 22 21 20 19 19 19 19 20 20 21 21 22 22 23 23 23 23 22 23 24 25 26 26 25 23 23 23 24 25 26 27 27 27 28 29 27 24 20 19 22 24 25 26 27 28 28 29 30 30 31 30 28 26 25 25 24 22
18 18 19 20 21 21 22 23 24 24 25 24 22 21 19 19 19 19 19 19 19 20 20 21 22 22 23 23 22 23 23 24 25 26 26 26 24 23 22 23 24 25 25 26 26 26 27 28 27 22 19 20 23 24 25 26 26 27 28 29 29 30 30 28 26 25 24 24 22
17 18 19 19 20 21 22 23 24 24 24 24 23 21 20 19 19 18 18 18 18 19 20 20 21 22 22 22 23 23 24 24 25 25 26 25 24 23 22 22 23 23 24 25 25 25 26 27 27 24 21 19 21 23 24 24 25 26 27 28 28 29 29 28 27 25 24 24 23
16 17 18 19 20 21 21 22 23 24 24 24 23 21 20 19 18 18 17 17 18 19 20 21 21 21 22 22 23 23 24 25 25 25 25 24 23 22 22 22 23 23 23 23 24 24 25 26 26 26 23 20 21 22 23 23 24 25 26 27 28 28 27 27 26 25 24 24 23
Wind_Direction
7 4 1 358 354 351 348 345 344 343 341 339 337 336 336 334 332 330 329 329 328 327 326 325 324 323 322 323 322 322 321 321 320 319 317 315 313 311 310 310 310 309 309 308 307 307 307 306 305 304 303 301 297 293 291 291 293 295 295 295 294 292 290 288 287 287 287 287 287
6 5 2 359 356 354 350 347 345 343 342 340 338 337 336 335 333 331 330 329 328 326 324 323 323 322 321 321 321 321 320 318 317 316 314 313 311 310 310 309 308 307 306 306 305 304 303 303 303 302 301 299 296 294 293 293 294 295 295 295 293 290 289 288 287 287 288 289 288
6 5 2 0 358 356 353 350 346 344 342 341 341 339 337 336 334 332 330 329 328 326 325 324 323 322 321 321 321 320 319 316 316 314 313 312 311 310 309 308 307 306 306 305 303 301 300 299 300 299 297 296 295 294 294 294 294 294 294 293 291 289 288 287 288 288 289 289 290
6 5 2 360 358 356 353 350 346 344 343 342 341 340 339 336 334 332 329 328 328 327 325 323 322 322 321 321 320 319 318 316 315 314 312 311 310 310 309 307 306 304 303 303 301 300 299 297 297 296 295 293 292 291 291 292 293 292 291 290 289 287 286 286 286 288 290 290 291
5 4 1 358 356 355 352 349 346 344 343 341 341 340 339 337 335 333 331 330 328 326 325 323 321 321 322 321 320 319 318 317 316 314 313 312 311 310 309 307 305 303 302 301 299 298 297 296 295 294 292 291 291 291 291 291 290 289 288 288 286 285 285 285 286 289 291 292 293
2 1 359 357 354 352 351 349 347 345 343 341 340 340 339 337 334 332 331 329 328 328 327 326 324 323 323 322 321 320 319 317 317 316 315 314 313 312 310 308 307 305 303 301 300 298 297 295 293 292 290 289 290 290 290 289 288 287 287 287 286 285 285 286 288 290 292 293 292
360 357 356 354 352 351 349 348 347 345 344 342 340 339 338 335 333 333 332 330 330 330 329 328 326 325 324 324 322 321 320 319 319 318 318 316 315 314 312 311 309 307 305 303 301 299 297 295 293 291 290 290 289 289 289 289 288 287 287 286 286 286 287 288 290 291 292 291 291
358 356 354 352 351 350 349 348 347 346 344 343 341 339 337 336 334 334 333 333 331 331 330 329 327 326 326 326 324 323 322 321 321 321 320 319 317 315 314 313 312 310 308 306 303 301 299 297 294 291 289 288 289 289 289 289 288 288 287 287 288 289 289 290 291 291 291 291 292
357 355 353 352 351 350 349 348 347 346 345 343 340 339 337 336 336 335 335 334 333 332 330 329 328 328 328 327 325 324 324 325 324 324 323 322 320 319 318 318 316 315 312 309 307 305 302 298 295 292 290 289 289 289 289 289 289 289 288 288 290 291 292 292 292 292 293 294 294
356 354 353 351 351 351 350 348 348 347 346 343 341 340 339 338 338 336 335 333 333 332 332 331 331 331 330 329 328 328 328 327 327 326 326 326 324 323 322 322 321 319 317 314 311 308 304 299 295 293 291 289 289 289 290 291 291 290 290 291 292 293 294 295 295 295 296 296 296
355 354 352 351 350 350 349 348 348 348 346 344 342 341 341 340 339 337 336 334 334 334 334 334 334 333 331 330 330 331 331 330 330 330 329 328 328 329 329 328 327 325 322 321 317 312 307 300 295 293 292 292 291 291 291 292 293 292 292 293 294 294 295 298 299 300 299 299 300
355 353 352 351 351 350 349 349 349 348 346 345 343 342 341 340 339 338 337 337 337 336 336 337 336 335 333 332 332 333 334 335 337 337 336 334 334 336 337 336 336 335 334 333 329 323 315 307 301 297 296 296 294 293 293 294 295 295 295 295 296 297 298 301 304 305 305 305 306
354 353 352 351 351 351 350 350 349 348 346 345 344 343 342 341 340 339 339 338 338 338 338 339 338 336 335 334 335 336 337 339 340 341 342 341 341 342 343 344 345 346 349 351 350 345 335 324 315 308 304 303 300 299 298 298 297 297 297 299 300 302 304 307 311 313 314 315 314
354 353 352 352 352 351 351 350 348 347 346 346 345 345 343 342 342 341 340 340 340 340 340 340 340 339 338 337 338 339 340 342 343 344 345 347 348 348 348 349 352 356 3 9 11 11 6 358 348 336 326 319 315 312 310 308 305 305 305 306 308 310 314 318 323 326 326 326 325
353 352 352 352 352 351 350 349 348 347 346 346 346 345 344 343 343 343 342 342 343 343 343 343 342 342 342 341 342 342 343 345 346 348 350 352 351 351 352 353 356 3 13 20 23 25 25 23 18 11 2 353 347 342 339 334 328 325 324 322 324 327 331 336 340 341 340 337 335
353 352 353 353 353 351 350 349 348 347 347 346 347 346 345 344 344 345 345 345 345 346 346 346 345 344 344 345 345 345 346 348 350 351 352 353 353 354 354 355 357 4 17 26 28 29 30 31 31 30 27 24 21 19 17 14 8 2 358 356 356 357 358 359 359 358 355 351 346
353 353 353 353 352 351 350 349 348 348 347 347 348 347 347 346 346 347 348 348 348 348 348 349 348 347 346 347 347 348 348 350 352 353 354 354 354 356 356 356 357 3 17 28 29 30 31 33 35 37 38 38 38 37 37 36 34 31 28 26 25 24 23 20 17 14 10 6 2
353 353 353 352 352 350 350 349 349 348 348 348 348 348 348 349 349 350 351 352 352 351 350 351 351 350 349 348 349 349 350 351 353 355 356 355 355 356 357 358 359 4 16 26 28 29 31 33 35 38 40 41 42 42 42 42 41 40 39 37 36 35 33 31 28 24 21 17 14
352 353 353 352 351 351 350 350 349 349 348 349 349 349 350 352 353 354 355 356 356 355 354 353 352 352 351 350 350 350 351 352 354 356 357 358 358 358 358 359 2 7 16 24 25 27 30 33 35 36 37 38 39 39 40 40 39 38 38 37 36 35 33 31 29 26 24 21 18
352 352 352 352 351 350 350 349 349 349 349 350 350 351 353 354 356 357 357 358 358 358 357 355 354 353 353 352 351 351 352 353 355 357 359 0 1 0 0 1 5 10 18 24 24 24 27 31 34 35 35 35 35 35 35 35 35 34 34 33 33 32 31 29 28 26 24 21 17
352 352 352 351 351 350 350 349 349 350 350 351 352 353 354 356 358 359 360 360 0 1 360 357 355 354 353 352 351 351 351 354 357 360 1 2 2 2 2 3 7 13 21 26 26 25 25 28 31 34 34 34 33 33 32 30 30 30 30 30 30 30 29 29 27 25 22 20 17
352 352 351 350 350 350 350 350 351 351 352 352 354 355 356 358 360 1 2 3 3 3 1 358 356 354 353 352 351 351 352 355 359 2 3 4 5 5 5 6 10 15 23 29 29 27 27 28 31 33 34 33 32 31 30 28 26 25 25 26 27 27 28 27 26 24 21 19 17
352 352 351 350 350 350 350 351 352 353 353 354 355 356 357 359 1 2 4 5 5 4 2 359 356 355 354 353 353 353 354 356 359 2 5 7 7 7 8 9 11 18 25 31 31 31 30 30 32 34 35 34 32 30 28 27 24 22 22 22 23 24 24 24 24 23 22 20 19
353 352 351 350 350 351 351 352 352 353 354 354 355 356 358 360 1 3 5 6 6 4 2 359 357 355 355 354 355 355 356 357 358 0 4 7 8 8 8 9 11 19 27 31 33 34 34 33 33 34 35 34 32 30 28 26 24 22 21 20 20 20 20 20 21 21 21 21 20
352 352 351 351 350 351 351 352 353 353 354 355 356 357 359 0 2 3 5 6 5 4 2 360 358 356 355 355 356 357 358 358 358 359 1 3 5 6 6 6 9 18 27 32 35 36 38 37 35 34 34 34 33 30 28 26 24 22 21 20 18 17 15 14 15 16 18 19 19
352 352 352 351 350 350 351 352 353 353 354 355 356 357 359 1 2 4 5 6 5 4 2 360 358 356 355 356 357 359 360 359 359 359 359 0 2 3 2 1 3 12 27 33 36 38 39 39 37 35 33 33 33 31 28 25 24 23 22 20 18 16 14 12 10 11 13 15 17
352 351 351 351 350 350 351 351 352 353 354 355 356 357 359 1 3 5 7 7 5 3 2 360 358 356 356 357 358 0 1 0 360 359 360 360 0 0 360 359 0 8 24 34 37 38 38 38 37 35 33 32 32 31 29 26 24 23 22 20 18 16 14 12 10 9 9 11 14
352 351 350 350 350 350 351 352 352 353 354 355 356 357 359 2 5 7 7 7 5 3 1 359 358 358 358 358 360 1 2 2 1 0 0 1 1 0 0 360 360 3 15 33 39 40 39 38 36 35 32 30 30 30 29 26 24 23 21 20 18 16 15 13 11 9 8 8 10
352 352 351 351 351 351 351 352 353 353 353 354 355 358 0 3 6 7 7 6 4 2 360 359 359 359 359 359 0 2 3 3 2 1 1 1 1 1 0 0 360 359 6 32 42 41 39 38 36 35 32 30 29 28 27 26 24 22 21 19 18 16 14 13 12 10 8 7 7
353 353 352 352 352 352 353 354 353 352 352 353 355 358 1 4 6 6 5 3 1 360 359 359 0 0 0 0 1 2 3 4 3 2 2 1 0 0 360 359 359 357 2 28 43 43 40 39 37 35 31 29 28 27 26 25 23 22 20 19 18 17 15 13 12 10 8 7 6
354 354 353 353 353 353 354 354 354 353 352 353 355 358 1 2 3 4 3 1 359 359 360 1 1 1 1 1 2 2 3 3 3 3 2 1 360 360 0 0 359 357 0 17 35 42 41 40 38 35 31 28 26 25 24 24 23 21 20 19 18 17 16 14 12 10 9 7 5
354 354 353 353 353 354 355 355 354 353 352 353 354 357 360 1 2 3 3 1 358 358 359 1 0 360 360 0 1 2 2 2 2 2 1 0 360 360 1 1 0 358 358 5 19 34 41 39 37 34 31 27 25 24 23 22 21 20 19 18 18 17 16 15 12 10 8 7 5
354 354 353 353 352 353 355 355 355 354 353 353 354 356 358 0 2 3 3 1 358 357 358 359 359 358 357 357 358 359 360 359 359 360 0 0 360 360 0 359 360 358 356 356 7 22 35 38 36 33 29 26 24 22 21 19 19 18 18 17 17 17 16 15 13 11 9 7 5
353 353 353 353 353 353 354 355 355 355 354 353 354 355 358 360 1 1 1 359 357 357 358 359 358 358 357 357 357 357 357 357 357 358 358 359 359 359 359 358 358 357 354 350 359 11 26 36 36 33 29 27 24 22 19 18 17 16 16 15 15 15 15 15 14 12 10 7 5
353 353 352 353 353 353 354 354 355 355 355 354 354 355 356 359 1 1 360 358 357 357 359 359 359 358 358 357 358 358 357 356 356 356 356 356 356 357 357 357 357 357 354 350 352 1 14 29 35 33 29 27 24 22 19 17 15 15 14 13 13 13 13 13 12 11 9 7 4
353 353 352 352 353 353 354 354 355 355 356 355 354 354 355 358 0 2 1 359 358 358 358 359 359 359 358 357 357 358 358 357 356 355 354 353 353 354 355 355 356 356 355 352 348 352 1 15 29 32 29 27 25 22 19 16 15 13 12 12 12 11 11 11 10 9 8 6 2
354 353 352 352 353 353 354 354 355 355 356 356 355 354 354 356 359 1 1 359 358 358 358 358 358 358 357 356 356 357 358 359 358 356 354 352 352 351 351 352 353 355 355 352 348 346 350 2 17 27 28 26 25 23 19 16 14 12 12 11 10 10 10 10 9 7 5 3 359
354 353 352 352 352 353 354 354 355 355 356 355 354 353 353 355 357 359 1 360 358 357 356 356 356 357 357 357 356 357 359 1 0 358 356 353 351 350 348 348 350 352 353 351 348 344 344 351 5 18 25 26 25 23 19 16 13 12 11 10 9 8 8 8 7 5 3 0 356
353 353 352 352 352 353 353 354 355 355 355 355 354 353 352 353 355 357 359 360 360 358 356 355 354 356 357 358 358 358 360 1 1 360 357 354 352 349 347 345 346 347 349 349 346 343 341 342 354 7 20 24 25 23 19 15 12 11 11 10 8 7 6 6 5 3 0 358 354
353 353 352 353 353 353 353 354 354 355 355 355 354 353 352 352 352 354 356 358 0 360 358 355 354 356 358 360 360 359 359 360 0 359 358 355 353 351 348 346 344 344 345 346 345 342 338 337 345 356 9 20 24 21 17 14 11 10 10 10 8 6 4 4 3 1 358 356 353
353 353 353 353 354 353 353 353 354 354 355 355 355 353 352 350 350 351 352 354 357 358 357 355 354 356 359 1 1 360 358 358 357 357 356 354 353 352 351 349 346 344 342 342 342 339 335 334 337 346 360 14 19 19 16 12 11 10 10 9 7 6 4 2 1 359 357 355 352
Height
883 882 881 880 879 878 877 876 875 874 872 871 869 868 866 865 863 861 860 858 856 854 852 850 848 846 843 841 839 837 834 832 830 827 825 823 821 819 817 815 814 812 811 809 808 806 805 804 803 802 800 798 797 795 794 793 793 792 792 791 790 789 788 787 786 785 784 784 783
883 882 881 880 879 878 877 876 875 873 872 871 869 868 866 865 863 861 859 858 856 854 852 850 847 845 842 840 838 836 833 831 828 825 823 821 819 817 816 814 812 811 809 807 806 805 803 802 801 800 798 797 795 794 793 792 791 791 790 789 788 787 787 786 785 784 783 782 782
883 882 881 880 879 878 877 876 874 873 872 871 869 868 866 865 863 861 859 858 856 854 852 849 847 844 842 839 837 835 832 829 826 824 821 819 817 816 814 812 811 809 807 806 804 803 802 800 799 798 796 795 794 792 791 790 790 789 788 788 787 786 785 784 783 782 782 781 780
883 882 881 880 879 878 877 876 875 873 872 871 869 868 866 865 863 861 859 857 855 853 851 849 846 843 841 839 836 833 830 827 825 822 820 817 816 814 812 810 808 807 805 803 802 801 799 798 797 796 795 793 792 791 790 789 788 788 787 786 785 784 784 783 782 781 780 780 779
882 882 881 880 879 878 877 876 875 873 872 870 869 867 866 864 863 861 859 857 855 852 850 848 846 843 841 838 835 831 828 825 823 821 818 816 814 812 810 808 806 804 802 801 800 798 797 796 795 794 792 791 790 789 788 787 787 786 785 785 784 783 782 782 781 780 779 779 778
882 882 881 880 879 878 877 876 875 873 872 870 869 867 866 864 862 860 858 856 854 852 850 847 845 843 840 837 833 830 827 824 822 819 817 815 812 810 808 806 804 802 800 799 797 796 795 794 793 792 790 789 788 787 786 786 785 785 784 783 782 782 781 780 780 779 778 777 776
883 882 881 880 879 878 877 876 874 873 872 870 868 867 865 864 862 860 858 856 853 851 849 847 844 842 838 835 832 828 826 823 821 818 816 814 811 809 806 804 802 800 798 796 795 793 792 792 791 790 788 787 786 785 784 784 784 783 782 782 781 780 780 779 779 778 777 776 774
883 882 882 880 879 878 877 875 874 872 871 870 868 867 865 863 861 859 857 855 853 851 849 846 843 840 837 834 831 828 825 822 820 817 815 812 810 807 804 802 800 797 796 794 792 791 790 790 789 787 787 785 784 784 783 783 782 782 781 780 779 779 779 778 777 777 775 774 772
883 882 881 880 879 877 876 875 874 872 871 869 868 866 864 863 861 858 857 855 853 851 848 845 842 839 836 833 831 828 825 822 820 817 814 811 808 805 802 800 797 795 793 792 790 789 788 787 787 785 785 784 783 782 782 781 781 780 779 779 778 778 777 777 776 775 774 773 772
883 882 881 880 878 877 876 875 873 872 870 869 867 865 864 862 860 858 857 855 853 850 847 844 841 838 835 833 830 828 825 822 819 816 813 810 807 804 801 798 795 793 791 789 788 787 786 785 784 783 782 782 781 781 780 780 779 779 778 778 777 777 776 775 774 774 773 772 770
883 882 881 880 878 877 876 874 873 871 870 868 867 865 863 861 860 858 856 854 852 849 847 843 840 837 835 832 830 828 825 822 819 816 812 808 806 803 800 797 794 791 789 787 786 785 784 783 782 781 781 780 780 779 778 778 778 778 777 777 776 775 774 773 773 772 772 771 770
883 882 881 879 878 877 875 874 872 871 869 867 866 864 862 861 859 857 856 853 851 848 846 842 840 837 835 832 830 828 825 822 820 816 812 808 805 802 799 796 793 790 788 786 784 783 782 781 780 779 779 778 778 777 777 777 777 777 776 775 775 774 773 772 772 772 771 770 769
883 882 881 879 878 876 875 873 872 870 869 867 866 864 862 860 859 857 855 852 850 848 845 842 840 837 835 833 830 828 826 823 820 817 813 809 805 802 799 796 793 790 787 785 783 782 780 779 779 778 777 777 777 777 776 776 776 776 775 774 774 773 773 772 771 771 770 769 768
883 882 880 879 877 876 875 873 872 870 868 867 865 864 862 860 858 856 854 852 850 847 845 842 840 837 835 833 830 828 826 823 820 817 813 810 806 802 799 796 793 791 789 786 784 782 781 779 778 778 777 777 776 776 776 775 775 775 774 774 773 773 772 772 771 770 770 769 768
883 882 880 879 877 876 874 872 871 870 868 867 865 863 862 860 858 856 854 852 850 847 845 842 840 837 835 832 830 828 826 823 821 818 815 811 807 803 799 797 795 793 791 788 786 784 782 781 779 778 777 777 776 776 775 775 775 775 774 774 773 773 772 772 771 770 770 769 768
882 881 880 878 877 875 874 872 871 870 868 866 865 863 862 860 858 856 854 852 849 847 845 842 840 837 834 832 830 828 826 823 821 818 815 812 808 804 801 798 796 794 793 791 788 786 784 782 781 780 779 778 777 776 776 776 775 775 775 774 774 773 773 772 772 771 770 769 768
882 881 879 878 877 875 873 872 871 869 868 866 864 863 861 859 857 856 854 852 849 847 845 842 840 837 835 832 830 828 826 824 822 819 816 813 810 807 803 799 797 796 795 793 791 788 787 785 783 782 781 779 779 778 777 777 777 776 776 776 775 774 774 773 772 772 771 770 769
882 881 879 878 876 875 873 872 870 869 867 866 864 862 861 859 857 856 853 852 849 847 845 842 840 837 835 832 830 828 827 825 822 820 817 814 811 808 805 802 799 797 797 795 793 791 789 787 786 784 782 782 781 780 779 778 778 777 777 777 776 775 774 774 773 772 771 770 769
882 880 879 877 876 874 873 872 870 869 867 866 864 862 861 859 857 855 853 851 849 847 845 842 840 838 835 832 830 828 827 825 823 821 818 815 812 810 807 804 801 799 798 797 795 793 791 789 787 786 785 784 782 782 781 780 779 779 778 777 776 775 775 774 773 772 771 770 769
882 880 879 877 876 874 873 871 870 868 867 865 864 862 860 858 857 855 853 851 849 847 845 842 840 838 835 833 830 828 827 826 824 822 819 816 813 811 808 805 803 802 800 799 797 794 793 791 789 788 787 786 784 783 782 781 781 780 779 778 777 776 775 774 773 772 771 770 769
881 880 878 877 876 874 873 871 870 868 867 865 863 862 860 858 856 855 853 851 849 847 845 843 841 838 836 833 831 828 827 826 824 822 820 817 815 812 809 807 804 803 802 800 798 796 794 793 791 790 788 787 786 785 784 783 782 781 780 779 778 777 776 774 773 772 771 770 769
881 880 878 877 876 874 873 871 870 868 866 865 863 861 860 858 856 855 853 851 849 847 845 843 841 838 837 834 832 829 827 826 824 823 821 818 816 813 811 808 806 805 803 802 800 798 796 794 793 791 790 788 787 786 785 784 783 782 781 780 778 777 776 775 773 772 771 770 769
881 880 878 877 875 874 872 871 869 867 866 864 862 861 859 857 856 854 852 851 849 847 845 843 841 839 837 835 832 830 827 825 824 823 821 819 817 814 812 809 807 806 805 803 801 799 797 796 794 792 791 790 789 787 787 786 784 783 782 780 779 777 776 775 774 773 772 770 769
881 879 878 877 875 874 872 871 869 867 865 864 862 861 859 857 856 854 852 851 849 847 845 843 841 839 837 835 833 830 828 826 824 822 821 819 817 815 813 811 809 807 807 805 803 802 800 798 796 794 792 791 790 789 788 787 785 784 782 781 779 778 777 776 775 773 772 771 769
880 879 878 876 875 873 872 870 868 867 865 863 862 860 859 857 856 854 852 850 849 847 845 843 841 839 837 835 833 831 828 826 824 823 821 820 818 816 814 812 810 809 808 807 805 803 802 800 798 796 794 792 791 790 788 787 786 785 783 782 780 779 778 777 775 774 773 771 770
880 879 877 876 874 873 871 870 868 867 865 863 862 860 858 857 856 854 852 850 849 847 845 843 842 840 838 836 833 831 829 827 825 823 822 820 818 817 815 813 811 810 810 808 806 804 802 801 799 797 795 793 792 791 789 788 787 786 784 783 781 780 779 777 776 774 773 772 770
880 878 877 876 874 872 871 870 868 866 865 863 861 860 858 857 855 854 852 850 849 847 845 844 842 840 838 836 834 832 830 827 825 823 822 820 819 817 816 813 812 811 811 809 807 805 803 802 801 799 797 794 793 792 790 789 787 786 785 783 782 781 779 778 777 775 773 772 771
879 878 877 875 874 872 871 869 867 866 864 863 861 860 858 857 855 854 852 851 849 847 846 844 842 841 839 837 835 833 831 829 827 824 822 821 819 818 816 814 812 812 811 809 807 805 804 802 801 799 797 796 794 792 791 790 788 787 785 784 783 782 780 779 777 776 774 773 772
879 877 876 875 873 872 870 869 867 866 864 862 861 860 858 857 855 854 852 851 849 847 846 844 843 841 839 837 836 834 832 830 828 826 823 821 819 818 816 815 813 812 811 809 807 806 804 803 802 800 798 797 795 793 792 790 789 788 786 785 784 782 781 780 778 777 776 774 772
879 877 876 875 873 872 870 869 867 865 864 862 861 859 858 856 855 853 852 851 849 848 847 845 843 842 840 838 836 834 832 831 829 827 825 822 820 818 817 815 813 812 811 810 807 806 804 803 802 801 799 798 796 794 793 792 790 789 787 786 785 783 782 781 779 778 777 775 773
878 877 876 874 873 872 870 868 867 865 864 862 861 859 857 856 855 853 852 851 849 848 847 845 843 842 840 838 837 835 833 832 830 828 826 824 822 820 817 815 813 811 810 810 808 806 805 803 802 801 800 798 797 796 794 793 792 790 789 787 786 784 783 781 780 778 777 776 774
878 877 875 874 872 871 870 868 867 865 863 862 860 859 857 856 855 854 852 851 850 848 847 845 843 842 840 838 837 835 834 832 830 829 827 825 823 821 819 817 814 812 811 810 808 807 805 803 802 802 800 799 798 797 795 794 793 791 790 788 787 785 784 782 781 779 778 776 775
878 877 875 874 872 871 869 868 866 865 863 862 860 859 857 856 855 853 852 851 850 848 847 845 844 842 841 839 837 836 834 832 831 829 828 826 824 822 820 818 816 813 812 811 809 807 805 803 802 802 801 799 798 797 796 795 793 792 791 789 787 786 784 783 782 780 778 777 775
877 876 875 873 872 871 869 867 866 864 863 861 860 858 857 856 854 853 852 851 849 848 847 845 844 842 841 839 838 836 834 833 831 830 828 826 825 822 821 819 817 814 813 812 810 807 805 804 802 802 801 799 798 797 796 795 794 792 791 789 788 786 785 783 782 780 779 777 776
877 876 874 873 872 870 869 867 866 864 862 861 859 858 857 856 854 853 852 851 850 848 847 845 844 842 841 839 838 836 835 833 831 830 828 827 825 823 821 819 817 815 813 812 810 808 806 804 803 801 800 799 798 797 796 795 794 792 791 790 788 787 785 783 782 781 779 778 777
877 876 874 873 871 870 868 867 866 864 862 861 859 858 857 855 854 853 852 851 849 848 847 845 844 842 841 839 837 836 835 833 832 830 828 827 825 823 821 819 817 816 814 812 810 808 807 805 803 801 800 799 798 797 796 795 794 793 792 790 789 787 786 784 782 781 780 778 777
877 876 874 872 871 870 868 867 865 863 862 860 859 857 856 855 854 853 852 851 849 847 846 845 843 842 841 839 837 836 835 833 832 830 829 827 825 823 822 820 818 816 814 812 811 808 806 805 803 802 800 799 797 797 796 795 794 793 792 790 789 787 786 784 783 782 780 779 778
877 875 874 872 871 869 868 867 865 863 862 860 859 857 856 855 854 852 852 850 849 847 846 845 843 842 841 839 838 836 835 833 832 831 829 827 826 824 822 820 818 817 815 813 812 809 806 804 804 802 800 799 798 797 796 795 794 793 792 791 789 788 787 785 783 782 781 779 778
877 875 874 872 871 869 868 867 865 863 862 860 859 857 856 855 853 852 851 850 849 848 846 845 843 842 841 839 838 836 835 833 832 831 829 827 826 824 823 821 819 817 816 814 812 810 807 804 803 802 800 799 798 797 796 795 794 793 792 791 789 788 787 785 784 782 781 780 779
876 875 874 872 871 869 868 866 865 863 862 860 859 857 856 855 853 852 851 850 849 847 846 845 843 842 841 839 837 836 834 833 832 830 829 827 826 824 823 821 819 818 816 814 813 811 809 806 803 802 801 799 798 797 796 795 794 793 792 791 790 788 787 785 784 782 781 780 778
876 875 874 872 871 869 868 866 865 863 862 860 859 857 856 855 853 852 851 850 848 847 846 845 843 842 840 839 837 836 834 833 832 830 829 827 826 824 823 821 820 818 816 814 813 812 809 807 804 802 801 799 798 797 797 795 794 793 792 791 790 789 787 785 784 782 781 780 778